CW1569 Weather Reports


Display with metric or nautical units.
time (UTC)temp
F
wind
direction
speed
MPH
gust
MPH
rain 1hr
in
rain 24hr
in
rain mn
in
humidity
%
barometer
mb
20260506155324 51 360 9.0 14.0 0.00 0.00 0.00 42 1010.7
20260506154829 52 360 11.0 16.0 0.00 0.00 0.00 42 1010.6
20260506154340 52 360 8.0 21.0 0.00 0.00 0.00 42 1010.7
20260506153825 51 360 11.0 21.0 0.00 0.00 0.00 42 1010.6
20260506153332 51 360 9.0 18.0 0.00 0.00 0.00 43 1010.7
20260506152847 51 360 6.0 15.0 0.00 0.00 0.00 43 1010.9
20260506152351 51 360 8.0 14.0 0.00 0.00 0.00 46 1010.8
20260506151840 51 360 7.0 16.0 0.00 0.00 0.00 44 1010.7
20260506151332 51 360 10.0 17.0 0.00 0.00 0.00 46 1010.9
20260506150839 51 360 10.0 17.0 0.00 0.00 0.00 46 1010.8
20260506150329 51 360 8.0 14.0 0.00 0.00 0.00 46 1010.9
20260506145837 51 360 4.0 13.0 0.00 0.00 0.00 47 1010.8
20260506145326 51 360 7.0 13.0 0.00 0.00 0.00 46 1010.9
20260506144903 51 360 9.0 14.0 0.00 0.00 0.00 46 1010.9
20260506144352 51 360 5.0 14.0 0.00 0.00 0.00 48 1010.9
20260506143838 51 360 8.0 14.0 0.00 0.00 0.00 46 1010.9
20260506143342 51 360 7.0 16.0 0.00 0.00 0.00 45 1011.0
20260506142851 50 175 11.0 16.0 0.00 0.00 0.00 47 1011.0
20260506142337 50 360 5.0 15.0 0.00 0.00 0.00 49 1010.9
20260506141827 50 360 11.0 15.0 0.00 0.00 0.00 47 1010.9
20260506141337 50 360 8.0 14.0 0.00 0.00 0.00 47 1010.8
20260506140826 50 360 5.0 12.0 0.00 0.00 0.00 47 1010.8
20260506140333 50 360 8.0 12.0 0.00 0.00 0.00 46 1010.8
20260506135841 50 360 4.0 10.0 0.00 0.00 0.00 46 1010.8
20260506135330 50 360 5.0 9.0 0.00 0.00 0.00 48 1010.7
20260506134838 49 360 4.0 8.0 0.00 0.00 0.00 46 1010.6
20260506134348 49 360 4.0 8.0 0.00 0.00 0.00 52 1010.5
20260506133834 49 360 5.0 8.0 0.00 0.00 0.00 50 1010.5
20260506133324 49 360 3.0 8.0 0.00 0.00 0.00 53 1010.3
20260506132834 48 360 4.0 8.0 0.00 0.00 0.00 53 1010.4
20260506132323 48 360 4.0 6.0 0.00 0.00 0.00 56 1010.4
20260506131830 48 360 4.0 6.0 0.00 0.00 0.00 55 1010.4
20260506131342 48 360 2.0 4.0 0.00 0.00 0.00 57 1010.3
20260506130828 47 360 1.0 6.0 0.00 0.00 0.00 61 1010.3
20260506130337 47 360 3.0 6.0 0.00 0.00 0.00 62 1010.3
20260506125825 46 360 1.0 5.0 0.00 0.00 0.00 65 1010.4
20260506125330 46 360 2.0 5.0 0.00 0.00 0.00 66 1010.3
20260506124839 46 360 0.0 3.0 0.00 0.00 0.00 69 1010.2
20260506124329 45 360 2.0 4.0 0.00 0.00 0.00 69 1010.2
20260506123836 45 360 2.0 4.0 0.00 0.00 0.00 70 1010.3
20260506123347 45 360 0.0 0.0 0.00 0.00 0.00 70 1010.1
20260506122855 45 360 0.0 0.0 0.00 0.00 0.00 71 1010.1
20260506122322 44 360 0.0 0.0 0.00 0.00 0.00 71 1009.9
20260506121831 44 360 0.0 0.0 0.00 0.00 0.00 71 1009.9
20260506121323 43 360 0.0 0.0 0.00 0.00 0.00 74 1009.8
20260506120858 43 360 0.0 0.0 0.00 0.00 0.00 73 1009.7
20260506120326 42 360 0.0 0.0 0.00 0.00 0.00 75 1009.7
20260506115834 42 360 0.0 0.0 0.00 0.00 0.00 75 1009.7
20260506115323 42 360 0.0 0.0 0.00 0.00 0.00 73 1009.7
20260506114833 42 360 0.0 0.0 0.00 0.00 0.00 73 1009.7
20260506114324 41 360 0.0 0.0 0.00 0.00 0.00 74 1009.8
20260506113859 41 360 0.0 0.0 0.00 0.00 0.00 74 1009.8
20260506113328 41 360 0.0 0.0 0.00 0.00 0.00 75 1009.7
20260506112837 41 360 0.0 0.0 0.00 0.00 0.00 76 1009.7
20260506112409 41 360 0.0 0.0 0.00 0.00 0.00 77 1009.8
20260506111856 41 360 0.0 0.0 0.00 0.00 0.00 76 1009.7
20260506111327 40 360 0.0 2.0 0.00 0.00 0.00 76 1009.7
20260506110834 40 360 0.0 2.0 0.00 0.00 0.00 75 1009.5
20260506110324 40 360 1.0 3.0 0.00 0.00 0.00 76 1009.5
20260506105834 40 360 1.0 3.0 0.00 0.00 0.00 75 1009.4
20260506105322 40 360 1.0 3.0 0.00 0.00 0.00 74 1009.3
20260506104832 40 360 0.0 3.0 0.00 0.00 0.00 74 1009.1
20260506104342 40 360 2.0 3.0 0.00 0.00 0.00 74 1009.0
20260506103848 41 360 2.0 3.0 0.00 0.00 0.00 73 1008.8
20260506103335 41 360 0.0 0.0 0.00 0.00 0.00 72 1008.7
20260506102825 41 360 0.0 0.0 0.00 0.00 0.00 72 1008.7
20260506102334 41 360 0.0 1.0 0.00 0.00 0.00 72 1008.7
20260506101845 41 360 0.0 1.0 0.00 0.00 0.00 72 1008.7
20260506101334 41 360 0.0 0.0 0.00 0.00 0.00 71 1008.6
20260506100823 41 360 0.0 0.0 0.00 0.00 0.00 71 1008.6
20260506100355 41 360 0.0 0.0 0.00 0.00 0.00 69 1008.7
20260506095820 41 360 0.0 0.0 0.00 0.00 0.00 69 1008.7
20260506095332 41 360 0.0 0.0 0.00 0.00 0.00 70 1008.7
20260506094822 42 360 0.0 0.0 0.00 0.00 0.00 70 1008.6
20260506094400 42 360 0.0 0.0 0.00 0.00 0.00 70 1008.6
20260506093847 42 360 0.0 0.0 0.00 0.00 0.00 69 1008.7
20260506093335 42 360 0.0 0.0 0.00 0.00 0.00 68 1008.8
20260506092844 42 360 0.0 0.0 0.00 0.00 0.00 67 1008.8
20260506092333 42 360 0.0 0.0 0.00 0.00 0.00 68 1008.8
20260506091823 42 360 0.0 0.0 0.00 0.00 0.00 68 1008.9
20260506091334 42 360 0.0 0.0 0.00 0.00 0.00 68 1008.8
20260506090823 42 360 0.0 0.0 0.00 0.00 0.00 68 1008.8
20260506090332 42 360 0.0 0.0 0.00 0.00 0.00 67 1008.9
20260506085822 42 360 0.0 0.0 0.00 0.00 0.00 67 1009.0
20260506085329 42 360 0.0 0.0 0.00 0.00 0.00 66 1009.0
20260506084837 42 360 0.0 0.0 0.00 0.00 0.00 66 1008.7
20260506084329 42 360 0.0 0.0 0.00 0.00 0.00 65 1008.8
20260506083836 42 360 0.0 0.0 0.00 0.00 0.00 65 1008.8
20260506083325 42 360 0.0 0.0 0.00 0.00 0.00 65 1008.8
20260506082829 42 360 0.0 0.0 0.00 0.00 0.00 65 1008.8
20260506082338 42 360 0.0 0.0 0.00 0.00 0.00 65 1008.7
20260506081828 43 360 0.0 0.0 0.00 0.00 0.00 65 1008.5
20260506081337 43 360 0.0 0.0 0.00 0.00 0.00 66 1008.6
20260506080846 43 360 0.0 0.0 0.00 0.00 0.00 66 1008.5
20260506080335 43 360 0.0 0.0 0.00 0.00 0.00 66 1008.4
20260506073326 44 360 0.0 0.0 0.00 0.00 0.00 61 1008.4
20260506072833 44 360 0.0 0.0 0.00 0.00 0.00 61 1008.3
20260506072323 44 360 0.0 0.0 0.00 0.00 0.00 60 1008.3
20260506071832 44 360 0.0 0.0 0.00 0.00 0.00 60 1008.2
20260506071324 44 360 0.0 0.0 0.00 0.00 0.00 60 1008.3
20260506070831 45 360 0.0 0.0 0.00 0.00 0.00 59 1008.3
20260506070339 45 360 0.0 0.0 0.00 0.00 0.00 59 1008.3
20260506062329 46 360 1.0 4.0 0.00 0.00 0.00 56 1008.5
20260506061838 46 360 1.0 4.0 0.00 0.00 0.00 55 1008.5
20260506061329 46 360 2.0 5.0 0.00 0.00 0.00 55 1008.4
20260506060837 46 360 3.0 5.0 0.00 0.00 0.00 54 1008.3
20260506060327 46 360 2.0 6.0 0.00 0.00 0.00 54 1008.3
20260506051334 48 360 6.0 9.0 0.00 0.00 0.00 53 1008.2
20260506050822 48 360 6.0 9.0 0.00 0.00 0.00 53 1008.2
20260506050332 48 360 5.0 9.0 0.00 0.00 0.00 53 1008.0
20260506044836 49 360 3.0 7.0 0.00 0.00 0.00 50 1008.1
20260506044326 49 360 4.0 9.0 0.00 0.00 0.00 49 1008.2
20260506043834 49 360 5.0 9.0 0.00 0.00 0.00 48 1008.1
20260506043324 49 360 5.0 9.0 0.00 0.00 0.00 48 1008.2
20260506042834 49 360 4.0 8.0 0.00 0.00 0.00 48 1008.1
20260506042322 49 39 2.0 7.0 0.00 0.00 0.00 48 1008.0
20260506041831 49 360 2.0 5.0 0.00 0.00 0.00 48 1007.9
20260506041324 49 360 2.0 5.0 0.00 0.00 0.00 48 1007.9
20260506040832 50 360 3.0 5.0 0.00 0.00 0.00 48 1007.8
20260506040322 50 360 2.0 5.0 0.00 0.00 0.00 48 1007.8
20260506035832 50 360 3.0 4.0 0.00 0.00 0.00 48 1007.7
20260506035340 50 360 2.0 3.0 0.00 0.00 0.00 47 1007.9
20260506034827 50 360 2.0 5.0 0.00 0.00 0.00 46 1007.8
20260506034337 50 360 2.0 7.0 0.00 0.00 0.00 46 1007.4
20260506033825 50 360 2.0 7.0 0.00 0.00 0.00 45 1007.3
20260506033351 51 360 2.0 5.0 0.00 0.00 0.00 45 1007.1
20260506032823 51 360 3.0 5.0 0.00 0.00 0.00 45 1007.2
20260506032332 51 360 3.0 7.0 0.00 0.00 0.00 45 1007.1
20260506031840 51 360 4.0 8.0 0.00 0.00 0.00 44 1007.2
20260506031331 51 32 4.0 8.0 0.00 0.00 0.00 43 1007.3
20260506030839 51 360 3.0 7.0 0.00 0.00 0.00 43 1007.2
20260506030330 52 360 4.0 11.0 0.00 0.00 0.00 43 1007.3
20260506025840 52 360 4.0 11.0 0.00 0.00 0.00 43 1007.4
20260506025332 52 360 5.0 9.0 0.00 0.00 0.00 43 1007.4
20260506024822 52 360 4.0 9.0 0.00 0.00 0.00 42 1007.3
20260506024330 52 360 5.0 11.0 0.00 0.00 0.00 43 1007.0
20260506023836 52 360 5.0 12.0 0.00 0.00 0.00 43 1007.0
20260506023327 52 360 8.0 13.0 0.00 0.00 0.00 42 1007.0
20260506022837 52 360 6.0 13.0 0.00 0.00 0.00 43 1006.9
20260506022328 52 360 4.0 8.0 0.00 0.00 0.00 45 1006.8
20260506021838 52 360 3.0 5.0 0.00 0.00 0.00 46 1006.9
20260506021331 52 360 1.0 6.0 0.00 0.00 0.00 47 1006.8
20260506020840 52 360 1.0 6.0 0.00 0.00 0.00 47 1006.7
20260506020329 52 360 0.0 3.0 0.00 0.00 0.00 47 1006.6
20260506015839 52 360 1.0 3.0 0.00 0.00 0.00 47 1006.4
20260506015349 52 360 1.0 3.0 0.00 0.00 0.00 46 1006.4
20260506014838 52 360 1.0 3.0 0.00 0.00 0.00 45 1006.1
20260506014330 52 360 2.0 3.0 0.00 0.00 0.00 45 1006.1
20260506013834 52 360 0.0 3.0 0.00 0.00 0.00 45 1006.1
20260506013325 52 360 0.0 4.0 0.00 0.00 0.00 44 1006.0
20260506012834 53 360 1.0 3.0 0.00 0.00 0.00 44 1006.0
20260506012324 53 360 2.0 3.0 0.00 0.00 0.00 43 1005.9
20260506011834 53 360 2.0 3.0 0.00 0.00 0.00 43 1005.9
20260506011325 53 360 1.0 3.0 0.00 0.00 0.00 42 1005.6
20260506010833 53 360 2.0 4.0 0.00 0.00 0.00 42 1005.4
20260506010323 53 360 3.0 4.0 0.00 0.00 0.00 42 1005.4
20260506005832 53 360 1.0 4.0 0.00 0.00 0.00 41 1005.5
20260506005342 54 360 1.0 5.0 0.00 0.00 0.00 41 1005.4
20260506004832 54 360 2.0 7.0 0.00 0.00 0.00 40 1005.4
20260506004345 54 360 4.0 7.0 0.00 0.00 0.00 40 1005.4
20260506003832 54 260 2.0 6.0 0.00 0.00 0.00 40 1005.4
20260506003324 54 360 2.0 7.0 0.00 0.00 0.00 39 1005.3
20260506002835 54 360 2.0 10.0 0.00 0.00 0.00 39 1005.3
20260506002346 55 260 3.0 10.0 0.00 0.00 0.00 38 1005.3
20260506001834 55 360 4.0 13.0 0.00 0.00 0.00 38 1005.3
20260506001327 55 360 6.0 13.0 0.00 0.00 0.00 36 1005.4
20260506000834 55 254 6.0 11.0 0.00 0.00 0.00 36 1005.3
20260506000324 55 360 4.0 13.0 0.00 0.00 0.00 37 1005.3
20260505235826 55 360 6.0 13.0 0.00 0.00 0.00 36 1005.3
20260505235336 55 360 6.0 13.0 0.00 0.00 0.00 36 1005.2
20260505234827 55 360 7.0 13.0 0.00 0.00 0.00 36 1005.3
20260505234338 55 360 4.0 15.0 0.00 0.00 0.00 38 1005.2
20260505233826 55 360 5.0 15.0 0.00 0.00 0.00 37 1005.3
20260505233335 55 360 6.0 13.0 0.00 0.00 0.00 37 1005.2
20260505232845 55 360 6.0 11.0 0.00 0.00 0.00 37 1005.3
20260505232356 55 360 6.0 11.0 0.00 0.00 0.00 37 1005.3
20260505231824 55 360 3.0 9.0 0.00 0.00 0.00 37 1005.3
20260505231402 55 259 2.0 10.0 0.00 0.00 0.00 38 1005.4
20260505230849 55 360 6.0 11.0 0.00 0.00 0.00 37 1005.4
20260505230339 55 360 6.0 11.0 0.00 0.00 0.00 37 1005.5
20260505225827 55 360 7.0 11.0 0.00 0.00 0.00 37 1005.5
20260505225335 55 360 5.0 11.0 0.00 0.00 0.00 36 1005.6
20260505224826 55 232 5.0 11.0 0.00 0.00 0.00 36 1005.6
20260505224338 56 360 5.0 10.0 0.00 0.00 0.00 37 1005.5
20260505223826 56 360 3.0 11.0 0.00 0.00 0.00 37 1005.6
20260505223357 56 360 4.0 11.0 0.00 0.00 0.00 36 1005.6
20260505222825 56 360 2.0 11.0 0.00 0.00 0.00 36 1005.6
20260505222336 56 360 5.0 13.0 0.00 0.00 0.00 36 1005.6
20260505221846 56 360 6.0 13.0 0.00 0.00 0.00 36 1005.5
20260505221339 56 360 7.0 10.0 0.00 0.00 0.00 36 1005.5
20260505220828 56 360 4.0 12.0 0.00 0.00 0.00 35 1005.5
20260505220339 56 360 7.0 14.0 0.00 0.00 0.00 35 1005.6
20260505215848 56 360 5.0 14.0 0.00 0.00 0.00 36 1005.6
20260505215335 56 360 4.0 11.0 0.00 0.00 0.00 36 1005.7
20260505214823 56 360 4.0 12.0 0.00 0.00 0.00 35 1005.6
20260505214334 56 360 6.0 14.0 0.00 0.00 0.00 35 1005.5
20260505213841 56 360 8.0 14.0 0.00 0.00 0.00 34 1005.6
20260505213352 56 360 6.0 12.0 0.00 0.00 0.00 35 1005.6
20260505212840 56 360 6.0 12.0 0.00 0.00 0.00 33 1005.5
20260505212346 56 236 3.0 11.0 0.00 0.00 0.00 35 1005.5
20260505211836 56 360 6.0 14.0 0.00 0.00 0.00 32 1005.5
20260505211328 57 360 9.0 14.0 0.00 0.00 0.00 33 1005.6
20260505210831 57 5 5.0 13.0 0.00 0.00 0.00 32 1005.6
20260505210335 57 25 8.0 13.0 0.00 0.00 0.00 33 1005.6
20260505205845 57 360 7.0 13.0 0.00 0.00 0.00 35 1005.5
20260505205333 56 360 4.0 15.0 0.00 0.00 0.00 34 1005.5
20260505204823 56 360 6.0 15.0 0.00 0.00 0.00 35 1005.5
20260505204334 56 360 6.0 14.0 0.00 0.00 0.00 34 1005.5
20260505203823 56 360 7.0 11.0 0.00 0.00 0.00 34 1005.7
20260505203333 56 360 5.0 12.0 0.00 0.00 0.00 35 1005.8
20260505202824 56 360 5.0 12.0 0.00 0.00 0.00 34 1006.0
20260505202332 56 360 5.0 12.0 0.00 0.00 0.00 35 1005.8
20260505201841 56 242 7.0 12.0 0.00 0.00 0.00 34 1005.7
20260505201352 56 360 6.0 13.0 0.00 0.00 0.00 34 1005.7
20260505200834 56 360 8.0 13.0 0.00 0.00 0.00 32 1005.8
20260505200339 56 360 1.0 15.0 0.00 0.00 0.00 31 1005.8
20260505195826 57 360 9.0 15.0 0.00 0.00 0.00 30 1005.9
20260505195335 57 360 6.0 12.0 0.00 0.00 0.00 31 1005.8
20260505194825 57 360 8.0 12.0 0.00 0.00 0.00 33 1005.9
20260505194336 56 360 4.0 12.0 0.00 0.00 0.00 32 1006.0
20260505193824 56 360 7.0 19.0 0.00 0.00 0.00 32 1006.0
20260505193400 56 360 9.0 19.0 0.00 0.00 0.00 32 1005.8
20260505192847 56 360 7.0 16.0 0.00 0.00 0.00 34 1006.0
20260505192356 56 360 8.0 17.0 0.00 0.00 0.00 32 1006.1
20260505191842 56 360 7.0 17.0 0.00 0.00 0.00 33 1006.2
20260505191348 56 360 3.0 17.0 0.00 0.00 0.00 34 1006.2
20260505190836 56 360 10.0 17.0 0.00 0.00 0.00 31 1006.1
20260505190324 56 360 7.0 13.0 0.00 0.00 0.00 32 1006.1
20260505185832 56 360 4.0 13.0 0.00 0.00 0.00 35 1006.0
20260505185343 56 360 7.0 21.0 0.00 0.00 0.00 33 1006.0
20260505184832 56 360 7.0 21.0 0.00 0.00 0.00 31 1005.9
20260505184344 57 360 11.0 17.0 0.00 0.00 0.00 32 1005.9
20260505183829 57 360 4.0 12.0 0.00 0.00 0.00 34 1005.9
20260505183340 56 360 4.0 11.0 0.00 0.00 0.00 35 1005.9
20260505182851 56 360 5.0 15.0 0.00 0.00 0.00 33 1005.9
20260505182357 56 360 9.0 15.0 0.00 0.00 0.00 33 1005.9
20260505181839 56 360 8.0 15.0 0.00 0.00 0.00 33 1005.9
20260505181328 56 360 6.0 15.0 0.00 0.00 0.00 35 1005.9
20260505180837 56 360 7.0 18.0 0.00 0.00 0.00 32 1005.8
20260505180348 56 360 9.0 18.0 0.00 0.00 0.00 33 1005.7
20260505175854 56 360 9.0 15.0 0.00 0.00 0.00 33 1005.6
20260505175340 56 360 7.0 17.0 0.00 0.00 0.00 34 1005.6
20260505174846 55 360 8.0 14.0 0.00 0.00 0.00 36 1005.5
20260505174357 55 360 6.0 14.0 0.00 0.00 0.00 37 1005.6
20260505173824 55 360 7.0 14.0 0.00 0.00 0.00 35 1005.6
20260505173330 55 360 6.0 14.0 0.00 0.00 0.00 36 1005.5
20260505172822 54 360 4.0 14.0 0.00 0.00 0.00 39 1005.6
20260505172328 54 360 5.0 16.0 0.00 0.00 0.00 37 1005.5
20260505171837 54 360 6.0 16.0 0.00 0.00 0.00 37 1005.6
20260505171328 54 360 8.0 14.0 0.00 0.00 0.00 37 1005.5
20260505170835 54 360 5.0 13.0 0.00 0.00 0.00 38 1005.7
20260505170325 54 360 6.0 15.0 0.00 0.00 0.00 40 1005.8
20260505165836 54 360 9.0 15.0 0.00 0.00 0.00 38 1005.8
20260505165325 53 360 8.0 14.0 0.00 0.00 0.00 40 1005.7
20260505164834 53 360 9.0 15.0 0.00 0.00 0.00 39 1005.7
20260505164325 53 360 6.0 15.0 0.00 0.00 0.00 39 1005.5
20260505163831 53 360 6.0 10.0 0.00 0.00 0.00 40 1005.5
20260505163340 53 360 6.0 13.0 0.00 0.00 0.00 39 1005.5
20260505162831 53 196 7.0 13.0 0.00 0.00 0.00 39 1005.7
20260505162341 53 360 7.0 10.0 0.00 0.00 0.00 40 1005.4
20260505161848 53 360 6.0 11.0 0.00 0.00 0.00 42 1005.6
20260505161339 52 360 6.0 11.0 0.00 0.00 0.00 42 1005.6
20260505160826 52 360 3.0 9.0 0.00 0.00 0.00 44 1005.6
20260505160334 52 360 5.0 10.0 0.00 0.00 0.00 44 1005.7